Location: Delta State University
(33.7460°N, 90.7320°W)
Time: 00:56:41
(UTC-05:00)

Iridium 13 - Visible Passes

Search period start: 20 September 2014 00:00
Search period end: 30 September 2014 00:00
Orbit: 776 x 779 km, 86.4° (Epoch: 19 September)

Date Brightness Start Highest point End Pass type
(mag) Time Alt. Az. Time Alt. Az. Time Alt. Az.
20 Sep 8.1 03:21:33 16° ENE 03:21:33 16° ENE 03:23:52 10° NE visible
20 Sep 6.2 05:02:04 37° NW 05:02:04 37° NW 05:05:49 10° NNW visible
21 Sep 6.4 04:29:14 40° N 04:29:14 40° N 04:32:32 10° N visible
22 Sep 7.3 03:56:22 27° NNE 03:56:22 27° NNE 03:58:51 10° NNE visible
22 Sep 7.5 05:36:52 12° NW 05:36:52 12° NW 05:37:43 10° NW visible
23 Sep 8.1 03:23:27 16° NE 03:23:27 16° NE 03:24:43 10° NNE visible
23 Sep 7.3 05:03:57 18° NW 05:03:57 18° NW 05:05:32 10° NNW visible
24 Sep 7.4 04:31:00 19° NNW 04:31:00 19° NNW 04:32:32 10° N visible
25 Sep 7.8 03:58:01 16° N 03:58:01 16° N 03:59:05 10° N visible
26 Sep 8.4 03:25:00 11° NNE 03:25:00 11° NNE 03:25:15 10° NNE visible
